This demonstration page uses our WeatherBlox Daily Observations layout. Learn more.

Left ArrowRight Arrow

Hourly Observations for April 20, 2022

Temp ( °F °C ) Dew Point ( °F °C ) Humidity (%) Winds ( mph kmh ) Pressure ( in mb ) Visibility ( mi km ) Precip ( " mm )
12:53 am 00:53 Partly Cloudy 48 8.9 33 0.6 56 56 SSE 15 24 29.67 1005 10 16 0.00 0.00
1:53 am 01:53 Clear 50 10 35 1.7 57 57 SSE 14 22 29.64 1004 10 16 0.00 0.00
2:53 am 02:53 Mostly Clear 49 9.4 35 1.7 59 59 SE 16 26 29.60 1002 10 16 0.00 0.00
3:06 am 03:06 Mostly Cloudy 49 9.4 36 2.2 61 61 SE 13 20 29.60 1002 10 16 0.00 0.00
3:53 am 03:53 Cloudy 51 10.6 37 2.8 59 59 SSE 15 24 29.56 1001 10 16 0.00 0.00
4:53 am 04:53 Cloudy 53 11.7 40 4.4 61 61 SSE 13 20 29.55 1001 10 16 0.00 0.00
5:53 am 05:53 Cloudy 53 11.7 41 5 64 64 SE 7 11 29.57 1001 10 16 0.00 0.00
6:53 am 06:53 Cloudy 53 11.7 42 5.6 66 66 ESE 8 13 29.59 1002 10 16 0.00 0.00
7:53 am 07:53 Cloudy with Light Rain 50 10 46 7.8 86 86 ENE 7 11 29.61 1003 5 8 0.00 0.00
8:15 am 08:15 Cloudy with Light Rain 50 10 47 8.3 89 89 NE 6 9 29.65 1004 3 4 0.00 0.00
8:28 am 08:28 Cloudy with Light Rain 49 9.4 48 8.9 97 97 NE 6 9 29.65 1004 2 3 0.01 0.25
8:44 am 08:44 Cloudy with Light Rain 49 9.4 48 8.9 97 97 NNE 7 11 29.66 1004 2 2 0.02 0.51
8:53 am 08:53 Cloudy with Light Rain 49 9.4 48 8.9 97 97 NE 8 13 29.64 1004 1 2 0.03 0.76
9:00 am 09:00 Cloudy with Light Rain 50 10 49 9.4 96 96 NE 7 11 29.65 1004 2 3 0.00 0.00
9:07 am 09:07 Cloudy with Mist and Fog 50 10 49 9.4 96 96 NE 6 9 29.67 1005 3 5 0.00 0.00
9:20 am 09:20 Cloudy with Mist and Fog 50 10 49 9.4 96 96 NE 8 13 29.66 1004 3 5 0.00 0.00
9:45 am 09:45 Cloudy with Mist and Fog 50 10 49 9.4 96 96 N 8 13 29.68 1005 4 6 0.01 0.25
9:53 am 09:53 Cloudy with Mist and Fog 49 9.4 48 8.9 97 97 NNE 5 7 29.67 1005 4 6 0.01 0.25
10:01 am 10:01 Cloudy with Mist and Fog 49 9.4 48 8.9 97 97 NE 6 9 29.68 1005 3 5 0.00 0.00
10:25 am 10:25 Partly Cloudy with Mist and Fog 50 10 49 9.4 96 96 E 16 26 29.61 1003 5 8 0.00 0.00
10:33 am 10:33 Partly Cloudy with Mist and Fog 51 10.6 50 10 96 96 E 12 19 29.61 1003 5 8 0.00 0.00
10:53 am 10:53 Mostly Cloudy 53 11.7 51 10.6 93 93 N 9 15 29.67 1005 7 11 0.00 0.00
11:33 am 11:33 Mostly Cloudy 56 13.3 52 11.1 87 87 NW 13 20 29.68 1005 9 14 0.00 0.00
11:40 am 11:40 Mostly Cloudy 56 13.3 51 10.6 84 84 NW 14 22 29.68 1005 9 14 0.00 0.00
11:53 am 11:53 Cloudy 56 13.3 50 10 81 81 NNW 14 22 29.69 1006 10 16 0.00 0.00
12:40 pm 12:40 Mostly Cloudy 61 16 45 7 55 55 NNW 17 28 29.66 1005 10 16 0.00 0.00
12:53 pm 12:53 Partly Cloudy 61 16.1 45 7.2 56 56 N 13 20 29.68 1005 10 16 0.00 0.00
1:53 pm 13:53 Sunny 68 20 43 6.1 40 40 N 17 28 29.66 1005 10 16 0.00 0.00
2:53 pm 14:53 Sunny 69 20.6 39 3.9 33 33 NW 21 33 29.68 1005 10 16 0.00 0.00
3:53 pm 15:53 Sunny 71 21.7 34 1.1 26 26 NNW 17 28 29.69 1005 10 16 0.00 0.00
4:53 pm 16:53 Sunny 72 22.2 33 0.6 24 24 N 16 26 29.69 1005 10 16 0.00 0.00
5:53 pm 17:53 Sunny 72 22.2 32 0 23 23 NNW 18 30 29.71 1006 10 16 0.00 0.00
6:53 pm 18:53 Sunny 70 21.1 30 -1.1 23 23 NNW 16 26 29.74 1007 10 16 0.00 0.00
7:53 pm 19:53 Sunny 65 18.3 30 -1.1 27 27 N 9 15 29.79 1009 10 16 0.00 0.00
8:53 pm 20:53 Clear 57 13.9 29 -1.7 34 34 N 7 11 29.85 1011 10 16 0.00 0.00
9:53 pm 21:53 Clear 54 12.2 27 -2.8 35 35 ENE 7 11 29.90 1012 10 16 0.00 0.00
10:53 pm 22:53 Clear 51 10.6 27 -2.8 39 39 E 7 11 29.93 1013 10 16 0.00 0.00
11:53 pm 23:53 Clear 54 12.2 30 -1.1 40 40 E 10 17 29.93 1014 10 16 0.00 0.00

Powered by AerisWeather